Tracking 18945 objects as of 19-Jan-2018
HD Live streaming from Space Station
objects crossing your sky now

FENGYUN 1C DEB

Track FENGYUN 1C DEB now!
10-day predictions


NORAD ID: 37405
Int'l Code: 1999-025EFX
Perigee: 656.9 km
Apogee: 784.0 km
Inclination: 98.6 °
Period: 99.1 minutes
Semi major axis: 7091 km
RCS: 0.0122 m2 (small)
Launch date: May 10, 1999
Source: People's Republic of China (PRC)
Launch site: Taiyaun Space Center, China (TSC)

Note: This is SATELLITE DEBRIS
aabbcc
Your satellite tracking list
Your tracking list is empty




NASA's NSSDC Master Catalog

Two Line Element Set (TLE):
1 37405U 99025EFX 18018.38772568 +.00001342 +00000-0 +31521-3 0  9993
2 37405 098.6084 082.8442 0089659 178.3959 181.7541 14.53786022275642
Source of the keplerian elements: AFSPC